Year,Month,Day,Hour,Minute,Value (Times are PST for temperature in C)
2022,07,26,00,00,23.10
2022,07,26,00,01,23.10
2022,07,26,00,02,23.10
2022,07,26,00,03,23.10
2022,07,26,00,04,23.10
2022,07,26,00,05,23.10
2022,07,26,00,06,23.10
2022,07,26,00,07,23.10
2022,07,26,00,08,23.10
2022,07,26,00,09,23.10
2022,07,26,00,10,23.00
2022,07,26,00,11,23.00
2022,07,26,00,12,23.00
2022,07,26,00,13,23.00
2022,07,26,00,14,23.00
2022,07,26,00,15,22.90
2022,07,26,00,16,22.90
2022,07,26,00,17,22.90
2022,07,26,00,18,22.90
2022,07,26,00,19,22.90
2022,07,26,00,20,22.90
2022,07,26,00,21,22.90
2022,07,26,00,22,22.80
2022,07,26,00,23,22.80
2022,07,26,00,24,22.80
2022,07,26,00,25,22.80
2022,07,26,00,26,22.80
2022,07,26,00,27,22.80
2022,07,26,00,28,22.80
2022,07,26,00,29,22.70
2022,07,26,00,30,22.70
2022,07,26,00,31,22.70
2022,07,26,00,32,22.70
2022,07,26,00,33,22.70
2022,07,26,00,34,22.70
2022,07,26,00,35,22.70
2022,07,26,00,36,22.60
2022,07,26,00,37,22.60
2022,07,26,00,38,22.60
2022,07,26,00,39,22.60
2022,07,26,00,40,22.60
2022,07,26,00,41,22.50
2022,07,26,00,42,22.40
2022,07,26,00,43,22.40
2022,07,26,00,44,22.40
2022,07,26,00,45,22.40
2022,07,26,00,46,22.40
2022,07,26,00,47,22.40
2022,07,26,00,48,22.40
2022,07,26,00,49,22.30
2022,07,26,00,50,22.30
2022,07,26,00,51,22.30
2022,07,26,00,52,22.30
2022,07,26,00,53,22.30
2022,07,26,00,54,22.30
2022,07,26,00,55,22.30
2022,07,26,00,56,22.30
2022,07,26,00,57,22.30
2022,07,26,00,58,22.40
2022,07,26,00,59,22.40
2022,07,26,01,00,22.40
2022,07,26,01,01,22.40
2022,07,26,01,02,22.40
2022,07,26,01,03,22.40
2022,07,26,01,04,22.40
2022,07,26,01,05,22.40
2022,07,26,01,06,22.40
2022,07,26,01,07,22.40
2022,07,26,01,08,22.40
2022,07,26,01,09,22.40
2022,07,26,01,10,22.40
2022,07,26,01,11,22.40
2022,07,26,01,12,22.40
2022,07,26,01,13,22.40
2022,07,26,01,14,22.30
2022,07,26,01,15,22.30
2022,07,26,01,16,22.30
2022,07,26,01,17,22.30
2022,07,26,01,18,22.30
2022,07,26,01,19,22.30
2022,07,26,01,20,22.30
2022,07,26,01,21,22.30
2022,07,26,01,22,22.30
2022,07,26,01,23,22.20
2022,07,26,01,24,22.20
2022,07,26,01,25,22.20
2022,07,26,01,26,22.20
2022,07,26,01,27,22.20
2022,07,26,01,28,22.10
2022,07,26,01,29,22.10
2022,07,26,01,30,22.10
2022,07,26,01,31,22.10
2022,07,26,01,32,22.10
2022,07,26,01,33,22.00
2022,07,26,01,34,22.00
2022,07,26,01,35,22.00
2022,07,26,01,36,21.90
2022,07,26,01,37,21.90
2022,07,26,01,38,21.90
2022,07,26,01,39,21.90
2022,07,26,01,40,21.90
2022,07,26,01,41,21.80
2022,07,26,01,42,21.80
2022,07,26,01,43,21.80
2022,07,26,01,44,21.80
2022,07,26,01,45,21.70
2022,07,26,01,46,21.70
2022,07,26,01,47,21.70
2022,07,26,01,48,21.70
2022,07,26,01,49,21.70
2022,07,26,01,50,21.70
2022,07,26,01,51,21.60
2022,07,26,01,52,21.60
2022,07,26,01,53,21.60
2022,07,26,01,54,21.60
2022,07,26,01,55,21.60
2022,07,26,01,56,21.60
2022,07,26,01,57,21.60
2022,07,26,01,58,21.60
2022,07,26,01,59,21.50
2022,07,26,02,00,21.50
2022,07,26,02,01,21.60
2022,07,26,02,02,21.50
2022,07,26,02,03,21.50
2022,07,26,02,04,21.50
2022,07,26,02,05,21.50
2022,07,26,02,06,21.40
2022,07,26,02,07,21.40
2022,07,26,02,08,21.40
2022,07,26,02,09,21.40
2022,07,26,02,10,21.40
2022,07,26,02,11,21.40
2022,07,26,02,12,21.30
2022,07,26,02,13,21.30
2022,07,26,02,14,21.30
2022,07,26,02,15,21.30
2022,07,26,02,16,21.30
2022,07,26,02,17,21.30
2022,07,26,02,18,21.30
2022,07,26,02,19,21.30
2022,07,26,02,20,21.30
2022,07,26,02,21,21.30
2022,07,26,02,22,21.20
2022,07,26,02,23,21.20
2022,07,26,02,24,21.20
2022,07,26,02,25,21.20
2022,07,26,02,26,21.20
2022,07,26,02,27,21.20
2022,07,26,02,28,21.10
2022,07,26,02,29,21.10
2022,07,26,02,30,21.10
2022,07,26,02,31,21.10
2022,07,26,02,32,21.10
2022,07,26,02,33,21.10
2022,07,26,02,34,21.10
2022,07,26,02,35,21.10
2022,07,26,02,36,21.00
2022,07,26,02,37,21.00
2022,07,26,02,38,21.00
2022,07,26,02,39,21.00
2022,07,26,02,40,21.00
2022,07,26,02,41,21.00
2022,07,26,02,42,21.00
2022,07,26,02,43,21.00
2022,07,26,02,44,21.00
2022,07,26,02,45,21.00
2022,07,26,02,46,21.00
2022,07,26,02,47,21.00
2022,07,26,02,48,21.00
2022,07,26,02,49,21.00
2022,07,26,02,50,21.00
2022,07,26,02,51,21.00
2022,07,26,02,52,21.00
2022,07,26,02,53,21.00
2022,07,26,02,54,21.00
2022,07,26,02,55,20.90
2022,07,26,02,56,20.90
2022,07,26,02,57,20.90
2022,07,26,02,58,20.90
2022,07,26,02,59,20.90
2022,07,26,03,00,20.90
2022,07,26,03,01,20.90
2022,07,26,03,02,20.80
2022,07,26,03,03,20.80
2022,07,26,03,04,20.80
2022,07,26,03,05,20.80
2022,07,26,03,06,20.80
2022,07,26,03,07,20.80
2022,07,26,03,08,20.70
2022,07,26,03,09,20.70
2022,07,26,03,10,20.70
2022,07,26,03,11,20.70
2022,07,26,03,12,20.70
2022,07,26,03,13,20.70
2022,07,26,03,14,20.70
2022,07,26,03,15,20.70
2022,07,26,03,16,20.60
2022,07,26,03,17,20.60
2022,07,26,03,18,20.60
2022,07,26,03,19,20.60
2022,07,26,03,20,20.60
2022,07,26,03,21,20.60
2022,07,26,03,22,20.60
2022,07,26,03,23,20.60
2022,07,26,03,24,20.60
2022,07,26,03,25,20.60
2022,07,26,03,26,20.60
2022,07,26,03,27,20.60
2022,07,26,03,28,20.60
2022,07,26,03,29,20.60
2022,07,26,03,30,20.60
2022,07,26,03,31,20.50
2022,07,26,03,32,20.50
2022,07,26,03,33,20.50
2022,07,26,03,34,20.50
2022,07,26,03,35,20.50
2022,07,26,03,36,20.40
2022,07,26,03,37,20.40
2022,07,26,03,38,20.40
2022,07,26,03,39,20.40
2022,07,26,03,40,20.40
2022,07,26,03,41,20.40
2022,07,26,03,42,20.40
2022,07,26,03,43,20.40
2022,07,26,03,44,20.40
2022,07,26,03,45,20.40
2022,07,26,03,46,20.40
2022,07,26,03,47,20.40
2022,07,26,03,48,20.40
2022,07,26,03,49,20.40
2022,07,26,03,50,20.40
2022,07,26,03,51,20.30
2022,07,26,03,52,20.30
2022,07,26,03,53,20.30
2022,07,26,03,54,20.30
2022,07,26,03,55,20.30
2022,07,26,03,56,20.30
2022,07,26,03,57,20.30
2022,07,26,03,58,20.20
2022,07,26,03,59,20.20
2022,07,26,04,00,20.20
2022,07,26,04,01,20.20
2022,07,26,04,02,20.20
2022,07,26,04,03,20.20
2022,07,26,04,04,20.20
2022,07,26,04,05,20.20
2022,07,26,04,06,20.20
2022,07,26,04,07,20.20
2022,07,26,04,08,20.10
2022,07,26,04,09,20.10
2022,07,26,04,10,20.10
2022,07,26,04,11,20.10
2022,07,26,04,12,20.10
2022,07,26,04,13,20.10
2022,07,26,04,14,20.10
2022,07,26,04,15,20.10
2022,07,26,04,16,20.10
2022,07,26,04,17,20.10
2022,07,26,04,18,20.10
2022,07,26,04,19,20.10
2022,07,26,04,20,20.00
2022,07,26,04,21,20.00
2022,07,26,04,22,20.00
2022,07,26,04,23,20.00
2022,07,26,04,24,20.00
2022,07,26,04,25,19.90
2022,07,26,04,26,19.90
2022,07,26,04,27,19.90
2022,07,26,04,28,19.90
2022,07,26,04,29,19.90
2022,07,26,04,30,19.90
2022,07,26,04,31,19.90
2022,07,26,04,32,19.90
2022,07,26,04,33,19.80
2022,07,26,04,34,19.80
2022,07,26,04,35,19.80
2022,07,26,04,36,19.80
2022,07,26,04,37,19.80
2022,07,26,04,38,19.80
2022,07,26,04,39,19.70
2022,07,26,04,40,19.70
2022,07,26,04,41,19.70
2022,07,26,04,42,19.70
2022,07,26,04,43,19.60
2022,07,26,04,44,19.60
2022,07,26,04,45,19.60
2022,07,26,04,46,19.60
2022,07,26,04,47,19.60
2022,07,26,04,48,19.60
2022,07,26,04,49,19.60
2022,07,26,04,50,19.60
2022,07,26,04,51,19.60
2022,07,26,04,52,19.60
2022,07,26,04,53,19.60
2022,07,26,04,54,19.60
2022,07,26,04,55,19.60
2022,07,26,04,56,19.60
2022,07,26,04,57,19.60
2022,07,26,04,58,19.60
2022,07,26,04,59,19.60
2022,07,26,05,00,19.70
2022,07,26,05,01,19.70
2022,07,26,05,02,19.70
2022,07,26,05,03,19.70
2022,07,26,05,04,19.70
2022,07,26,05,05,19.70
2022,07,26,05,06,19.70
2022,07,26,05,07,19.70
2022,07,26,05,08,19.70
2022,07,26,05,09,19.70
2022,07,26,05,10,19.70
2022,07,26,05,11,19.70
2022,07,26,05,12,19.60
2022,07,26,05,13,19.60
2022,07,26,05,14,19.60
2022,07,26,05,15,19.60
2022,07,26,05,16,19.60
2022,07,26,05,17,19.60
2022,07,26,05,18,19.60
2022,07,26,05,19,19.60
2022,07,26,05,20,19.60
2022,07,26,05,21,19.60
2022,07,26,05,22,19.60
2022,07,26,05,23,19.60
2022,07,26,05,24,19.60
2022,07,26,05,25,19.60
2022,07,26,05,26,19.60
2022,07,26,05,27,19.60
2022,07,26,05,28,19.60
2022,07,26,05,29,19.60
2022,07,26,05,30,19.60
2022,07,26,05,31,19.60
2022,07,26,05,32,19.60
2022,07,26,05,33,19.60
2022,07,26,05,34,19.60
2022,07,26,05,35,19.50
2022,07,26,05,36,19.50
2022,07,26,05,37,19.50
2022,07,26,05,38,19.40
2022,07,26,05,39,19.40
2022,07,26,05,40,19.40
2022,07,26,05,41,19.30
2022,07,26,05,42,19.30
2022,07,26,05,43,19.30
2022,07,26,05,44,19.30
2022,07,26,05,45,19.30
2022,07,26,05,46,19.20
2022,07,26,05,47,19.20
2022,07,26,05,48,19.20
2022,07,26,05,49,19.10
2022,07,26,05,50,19.10
2022,07,26,05,51,19.10
2022,07,26,05,52,19.00
2022,07,26,05,53,19.00
2022,07,26,05,54,19.00
2022,07,26,05,55,19.00
2022,07,26,05,56,18.90
2022,07,26,05,57,18.90
2022,07,26,05,58,18.90
2022,07,26,05,59,18.90
2022,07,26,06,00,18.90
2022,07,26,06,01,18.90
2022,07,26,06,02,18.80
2022,07,26,06,03,18.80
2022,07,26,06,04,18.80
2022,07,26,06,05,18.80
2022,07,26,06,06,18.80
2022,07,26,06,07,18.80
2022,07,26,06,08,18.80
2022,07,26,06,09,18.80
2022,07,26,06,10,18.70
2022,07,26,06,11,18.70
2022,07,26,06,12,18.80
2022,07,26,06,13,18.70
2022,07,26,06,14,18.80
2022,07,26,06,15,18.80
2022,07,26,06,16,18.80
2022,07,26,06,17,18.80
2022,07,26,06,18,18.80
2022,07,26,06,19,18.70
2022,07,26,06,20,18.70
2022,07,26,06,21,18.70
2022,07,26,06,22,18.70
2022,07,26,06,23,18.70
2022,07,26,06,24,18.70
2022,07,26,06,25,18.70
2022,07,26,06,26,18.70
2022,07,26,06,27,18.70
2022,07,26,06,28,18.70
2022,07,26,06,29,18.70
2022,07,26,06,30,18.70
2022,07,26,06,31,18.70
2022,07,26,06,32,18.80
2022,07,26,06,33,18.80
2022,07,26,06,34,18.80
2022,07,26,06,35,18.80
2022,07,26,06,36,18.80
2022,07,26,06,37,18.80
2022,07,26,06,38,18.90
2022,07,26,06,39,18.90
2022,07,26,06,40,18.90
2022,07,26,06,41,18.90
2022,07,26,06,42,19.00
2022,07,26,06,43,19.00
2022,07,26,06,44,19.00
2022,07,26,06,45,19.00
2022,07,26,06,46,19.00
2022,07,26,06,47,19.00
2022,07,26,06,48,19.00
2022,07,26,06,49,19.00
2022,07,26,06,50,19.00
2022,07,26,06,51,19.00
2022,07,26,06,52,19.00
2022,07,26,06,53,19.00
2022,07,26,06,54,19.00
2022,07,26,06,55,19.00
2022,07,26,06,56,19.00
2022,07,26,06,57,19.00
2022,07,26,06,58,19.00
2022,07,26,06,59,19.00
2022,07,26,07,00,19.10
2022,07,26,07,01,19.10
2022,07,26,07,02,19.10
2022,07,26,07,03,19.20
2022,07,26,07,04,19.30
2022,07,26,07,05,19.40
2022,07,26,07,06,19.50
2022,07,26,07,07,19.60
2022,07,26,07,08,19.70
2022,07,26,07,09,19.80
2022,07,26,07,10,19.90
2022,07,26,07,11,20.00
2022,07,26,07,12,20.10
2022,07,26,07,13,20.20
2022,07,26,07,14,20.30
2022,07,26,07,15,20.40
2022,07,26,07,16,20.40
2022,07,26,07,17,20.50
2022,07,26,07,18,20.60
2022,07,26,07,19,20.70
2022,07,26,07,20,20.80
2022,07,26,07,21,20.80
2022,07,26,07,22,20.90
2022,07,26,07,23,21.00
2022,07,26,07,24,21.10
2022,07,26,07,25,21.20
2022,07,26,07,26,21.30
2022,07,26,07,27,21.30
2022,07,26,07,28,21.40
2022,07,26,07,29,21.50
2022,07,26,07,30,21.60
2022,07,26,07,31,21.60
2022,07,26,07,32,21.70
2022,07,26,07,33,21.70
2022,07,26,07,34,21.80
2022,07,26,07,35,21.80
2022,07,26,07,36,21.80
2022,07,26,07,37,21.80
2022,07,26,07,38,21.80
2022,07,26,07,39,21.80
2022,07,26,07,40,21.80
2022,07,26,07,41,21.80
2022,07,26,07,42,21.80
2022,07,26,07,43,21.80
2022,07,26,07,44,21.80
2022,07,26,07,45,21.80
2022,07,26,07,46,21.80
2022,07,26,07,47,21.90
2022,07,26,07,48,21.90
2022,07,26,07,49,22.00
2022,07,26,07,50,22.00
2022,07,26,07,51,22.10
2022,07,26,07,52,22.10
2022,07,26,07,53,22.10
2022,07,26,07,54,22.20
2022,07,26,07,55,22.20
2022,07,26,07,56,22.20
2022,07,26,07,57,22.20
2022,07,26,07,58,22.30
2022,07,26,07,59,22.30
2022,07,26,08,00,22.30
2022,07,26,08,01,22.30
2022,07,26,08,02,22.30
2022,07,26,08,03,22.30
2022,07,26,08,04,22.30
2022,07,26,08,05,22.30
2022,07,26,08,06,22.30
2022,07,26,08,07,22.30
2022,07,26,08,08,22.30
2022,07,26,08,09,22.40
2022,07,26,08,10,22.40
2022,07,26,08,11,22.40
2022,07,26,08,12,22.40
2022,07,26,08,13,22.50
2022,07,26,08,14,22.50
2022,07,26,08,15,22.60
2022,07,26,08,16,22.60
2022,07,26,08,17,22.70
2022,07,26,08,18,22.70
2022,07,26,08,19,22.80
2022,07,26,08,20,22.80
2022,07,26,08,21,22.90
2022,07,26,08,22,22.90
2022,07,26,08,23,23.00
2022,07,26,08,24,23.00
2022,07,26,08,25,23.00
2022,07,26,08,26,23.00
2022,07,26,08,27,23.00
2022,07,26,08,28,23.00
2022,07,26,08,29,23.00
2022,07,26,08,30,22.90
2022,07,26,08,31,22.90
2022,07,26,08,32,23.00
2022,07,26,08,33,23.00
2022,07,26,08,34,23.10
2022,07,26,08,35,23.10
2022,07,26,08,36,23.20
2022,07,26,08,37,23.20
2022,07,26,08,38,23.20
2022,07,26,08,39,23.30
2022,07,26,08,40,23.20
2022,07,26,08,41,23.20
2022,07,26,08,42,23.20
2022,07,26,08,43,23.10
2022,07,26,08,44,23.10
2022,07,26,08,45,23.10
2022,07,26,08,46,23.10
2022,07,26,08,47,23.10
2022,07,26,08,48,23.10
2022,07,26,08,49,23.20
2022,07,26,08,50,23.20
2022,07,26,08,51,23.30
2022,07,26,08,52,23.30
2022,07,26,08,53,23.40
2022,07,26,08,54,23.50
2022,07,26,08,55,23.50
2022,07,26,08,56,23.60
2022,07,26,08,57,23.70
2022,07,26,08,58,23.70
2022,07,26,08,59,23.70
2022,07,26,09,00,23.70
2022,07,26,09,01,23.70
2022,07,26,09,02,23.70
2022,07,26,09,03,23.70
2022,07,26,09,04,23.70
2022,07,26,09,05,23.70
2022,07,26,09,06,23.70
2022,07,26,09,07,23.70
2022,07,26,09,08,23.70
2022,07,26,09,09,23.70
2022,07,26,09,10,23.70
2022,07,26,09,11,23.80
2022,07,26,09,12,23.80
2022,07,26,09,13,23.90
2022,07,26,09,14,23.90
2022,07,26,09,15,24.00
2022,07,26,09,16,24.10
2022,07,26,09,17,24.10
2022,07,26,09,18,24.20
2022,07,26,09,19,24.30
2022,07,26,09,20,24.30
2022,07,26,09,21,24.40
2022,07,26,09,22,24.50
2022,07,26,09,23,24.50
2022,07,26,09,24,24.60
2022,07,26,09,25,24.60
2022,07,26,09,26,24.70
2022,07,26,09,27,24.80
2022,07,26,09,28,24.80
2022,07,26,09,29,24.80
2022,07,26,09,30,24.80
2022,07,26,09,31,24.80
2022,07,26,09,32,24.80
2022,07,26,09,33,24.80
2022,07,26,09,34,24.90
2022,07,26,09,35,25.00
2022,07,26,09,36,25.10
2022,07,26,09,37,25.10
2022,07,26,09,38,25.20
2022,07,26,09,39,25.20
2022,07,26,09,40,25.20
2022,07,26,09,41,25.30
2022,07,26,09,42,25.30
2022,07,26,09,43,25.40
2022,07,26,09,44,25.40
2022,07,26,09,45,25.40
2022,07,26,09,46,25.50
2022,07,26,09,47,25.50
2022,07,26,09,48,25.60
2022,07,26,09,49,25.60
2022,07,26,09,50,25.60
2022,07,26,09,51,25.70
2022,07,26,09,52,25.70
2022,07,26,09,53,25.70
2022,07,26,09,54,25.80
2022,07,26,09,55,25.90
2022,07,26,09,56,26.00
2022,07,26,09,57,26.10
2022,07,26,09,58,26.10
2022,07,26,09,59,26.20
2022,07,26,10,00,26.20
2022,07,26,10,01,26.30
2022,07,26,10,02,26.30
2022,07,26,10,03,26.20
2022,07,26,10,04,26.20
2022,07,26,10,05,26.20
2022,07,26,10,06,26.10
2022,07,26,10,07,26.10
2022,07,26,10,08,26.00
2022,07,26,10,09,26.00
2022,07,26,10,10,26.00
2022,07,26,10,11,26.10
2022,07,26,10,12,26.10
2022,07,26,10,13,26.10
2022,07,26,10,14,26.10
2022,07,26,10,15,26.20
2022,07,26,10,16,26.20
2022,07,26,10,17,26.30
2022,07,26,10,18,26.40
2022,07,26,10,19,26.40
2022,07,26,10,20,26.50
2022,07,26,10,21,26.50
2022,07,26,10,22,26.50
2022,07,26,10,23,26.60
2022,07,26,10,24,26.60
2022,07,26,10,25,26.50
2022,07,26,10,26,26.60
2022,07,26,10,27,26.60
2022,07,26,10,28,26.60
2022,07,26,10,29,26.60
2022,07,26,10,30,26.70
2022,07,26,10,31,26.70
2022,07,26,10,32,26.70
2022,07,26,10,33,26.80
2022,07,26,10,34,26.90
2022,07,26,10,35,27.00
2022,07,26,10,36,27.00
2022,07,26,10,37,27.10
2022,07,26,10,38,27.10
2022,07,26,10,39,27.20
2022,07,26,10,40,27.30
2022,07,26,10,41,27.30
2022,07,26,10,42,27.50
2022,07,26,10,43,27.60
2022,07,26,10,44,27.70
2022,07,26,10,45,27.80
2022,07,26,10,46,27.90
2022,07,26,10,47,27.90
2022,07,26,10,48,28.00
2022,07,26,10,49,28.10
2022,07,26,10,50,28.10
2022,07,26,10,51,28.20
2022,07,26,10,52,28.30
2022,07,26,10,53,28.30
2022,07,26,10,54,28.30
2022,07,26,10,55,28.30
2022,07,26,10,56,28.30
2022,07,26,10,57,28.30
2022,07,26,10,58,28.30
2022,07,26,10,59,28.40
2022,07,26,11,00,28.50
2022,07,26,11,01,28.50
2022,07,26,11,02,28.60
2022,07,26,11,03,28.70
2022,07,26,11,04,28.80
2022,07,26,11,05,28.90
2022,07,26,11,06,29.00
2022,07,26,11,07,29.10
2022,07,26,11,08,29.20
2022,07,26,11,09,29.20
2022,07,26,11,10,29.30
2022,07,26,11,11,29.30
2022,07,26,11,12,29.30
2022,07,26,11,13,29.30
2022,07,26,11,14,29.30
2022,07,26,11,15,29.30
2022,07,26,11,16,29.30
2022,07,26,11,17,29.40
2022,07,26,11,18,29.40
2022,07,26,11,19,29.40
2022,07,26,11,20,29.50
2022,07,26,11,21,29.60
2022,07,26,11,22,29.60
2022,07,26,11,23,29.60
2022,07,26,11,24,29.60
2022,07,26,11,25,29.60
2022,07,26,11,26,29.70
2022,07,26,11,27,29.80
2022,07,26,11,28,29.80
2022,07,26,11,29,29.90
2022,07,26,11,30,29.90
2022,07,26,11,31,30.00
2022,07,26,11,32,30.00
2022,07,26,11,33,30.10
2022,07,26,11,34,30.20
2022,07,26,11,35,30.20
2022,07,26,11,36,30.30
2022,07,26,11,37,30.30
2022,07,26,11,38,30.30
2022,07,26,11,39,30.30
2022,07,26,11,40,30.40
2022,07,26,11,41,30.50
2022,07,26,11,42,30.50
2022,07,26,11,43,30.50
2022,07,26,11,44,30.50
2022,07,26,11,45,30.50
2022,07,26,11,46,30.60
2022,07,26,11,47,30.50
2022,07,26,11,48,30.50
2022,07,26,11,49,30.40
2022,07,26,11,50,30.40
2022,07,26,11,51,30.40
2022,07,26,11,52,30.40
2022,07,26,11,53,30.50
2022,07,26,11,54,30.50
2022,07,26,11,55,30.60
2022,07,26,11,56,30.60
2022,07,26,11,57,30.70
2022,07,26,11,58,30.80
2022,07,26,11,59,30.80
2022,07,26,12,00,30.90
2022,07,26,12,01,30.90
2022,07,26,12,02,30.90
2022,07,26,12,03,30.90
2022,07,26,12,04,30.90
2022,07,26,12,05,30.90
2022,07,26,12,06,30.80
2022,07,26,12,07,30.90
2022,07,26,12,08,30.90
2022,07,26,12,09,30.90
2022,07,26,12,10,30.90
2022,07,26,12,11,31.00
2022,07,26,12,12,31.00
2022,07,26,12,13,31.10
2022,07,26,12,14,31.20
2022,07,26,12,15,31.20
2022,07,26,12,16,31.20
2022,07,26,12,17,31.20
2022,07,26,12,18,31.30
2022,07,26,12,19,31.50
2022,07,26,12,20,31.60
2022,07,26,12,21,31.70
2022,07,26,12,22,31.80
2022,07,26,12,23,31.90
2022,07,26,12,24,32.00
2022,07,26,12,25,32.10
2022,07,26,12,26,32.10
2022,07,26,12,27,32.10
2022,07,26,12,28,32.10
2022,07,26,12,29,32.10
2022,07,26,12,30,32.10
2022,07,26,12,31,32.10
2022,07,26,12,32,32.10
2022,07,26,12,33,32.10
2022,07,26,12,34,32.20
2022,07,26,12,35,32.30
2022,07,26,12,36,32.40
2022,07,26,12,37,32.50
2022,07,26,12,38,32.40
2022,07,26,12,39,32.40
2022,07,26,12,40,32.50
2022,07,26,12,41,32.50
2022,07,26,12,42,32.60
2022,07,26,12,43,32.60
2022,07,26,12,44,32.60
2022,07,26,12,45,32.70
2022,07,26,12,46,32.70
2022,07,26,12,47,32.80
2022,07,26,12,48,32.80
2022,07,26,12,49,32.90
2022,07,26,12,50,32.90
2022,07,26,12,51,32.90
2022,07,26,12,52,32.90
2022,07,26,12,53,33.00
2022,07,26,12,54,33.10
2022,07,26,12,55,33.10
2022,07,26,12,56,33.00
2022,07,26,12,57,32.90
2022,07,26,12,58,32.90
2022,07,26,12,59,32.90
2022,07,26,13,00,32.80
2022,07,26,13,01,32.80
2022,07,26,13,02,32.80
2022,07,26,13,03,32.80
2022,07,26,13,04,32.90
2022,07,26,13,05,32.90
2022,07,26,13,06,32.90
2022,07,26,13,07,32.90
2022,07,26,13,08,32.80
2022,07,26,13,09,32.80
2022,07,26,13,10,32.80
2022,07,26,13,11,32.90
2022,07,26,13,12,33.00
2022,07,26,13,13,33.10
2022,07,26,13,14,33.10
2022,07,26,13,15,33.10
2022,07,26,13,16,33.10
2022,07,26,13,17,33.10
2022,07,26,13,18,33.20
2022,07,26,13,19,33.30
2022,07,26,13,20,33.50
2022,07,26,13,21,33.50
2022,07,26,13,22,33.60
2022,07,26,13,23,33.70
2022,07,26,13,24,33.80
2022,07,26,13,25,33.80
2022,07,26,13,26,33.80
2022,07,26,13,27,33.80
2022,07,26,13,28,33.80
2022,07,26,13,29,33.80
2022,07,26,13,30,33.80
2022,07,26,13,31,33.90
2022,07,26,13,32,33.90
2022,07,26,13,33,34.00
2022,07,26,13,34,34.10
2022,07,26,13,35,34.20
2022,07,26,13,36,34.30
2022,07,26,13,37,34.30
2022,07,26,13,38,34.40
2022,07,26,13,39,34.40
2022,07,26,13,40,34.40
2022,07,26,13,41,34.50
2022,07,26,13,42,34.50
2022,07,26,13,43,34.60
2022,07,26,13,44,34.60
2022,07,26,13,45,34.70
2022,07,26,13,46,34.70
2022,07,26,13,47,34.70
2022,07,26,13,48,34.70
2022,07,26,13,49,34.70
2022,07,26,13,50,34.70
2022,07,26,13,51,34.70
2022,07,26,13,52,34.80
2022,07,26,13,53,34.80
2022,07,26,13,54,35.00
2022,07,26,13,55,35.10
2022,07,26,13,56,35.10
2022,07,26,13,57,35.10
2022,07,26,13,58,35.10
2022,07,26,13,59,35.10
2022,07,26,14,00,35.10
2022,07,26,14,01,35.10
2022,07,26,14,02,35.20
2022,07,26,14,03,35.30
2022,07,26,14,04,35.40
2022,07,26,14,05,35.40
2022,07,26,14,06,35.40
2022,07,26,14,07,35.40
2022,07,26,14,08,35.40
2022,07,26,14,09,35.40
2022,07,26,14,10,35.40
2022,07,26,14,11,35.50
2022,07,26,14,12,35.60
2022,07,26,14,13,35.70
2022,07,26,14,14,35.80
2022,07,26,14,15,35.90
2022,07,26,14,16,35.90
2022,07,26,14,17,36.00
2022,07,26,14,18,36.10
2022,07,26,14,19,36.10
2022,07,26,14,20,36.10
2022,07,26,14,21,36.10
2022,07,26,14,22,36.00
2022,07,26,14,23,36.00
2022,07,26,14,24,36.00
2022,07,26,14,25,36.00
2022,07,26,14,26,36.10
2022,07,26,14,27,36.00
2022,07,26,14,28,36.00
2022,07,26,14,29,35.90
2022,07,26,14,30,35.80
2022,07,26,14,31,35.80
2022,07,26,14,32,35.70
2022,07,26,14,33,35.70
2022,07,26,14,34,35.70
2022,07,26,14,35,35.70
2022,07,26,14,36,35.80
2022,07,26,14,37,35.80
2022,07,26,14,38,35.90
2022,07,26,14,39,35.90
2022,07,26,14,40,35.90
2022,07,26,14,41,35.90
2022,07,26,14,42,35.80
2022,07,26,14,43,35.80
2022,07,26,14,44,35.80
2022,07,26,14,45,35.80
2022,07,26,14,46,35.90
2022,07,26,14,47,36.00
2022,07,26,14,48,36.00
2022,07,26,14,49,36.00
2022,07,26,14,50,35.90
2022,07,26,14,51,35.80
2022,07,26,14,52,35.80
2022,07,26,14,53,35.80
2022,07,26,14,54,35.80
2022,07,26,14,55,35.90
2022,07,26,14,56,35.90
2022,07,26,14,57,36.00
2022,07,26,14,58,36.00
2022,07,26,14,59,36.10
2022,07,26,15,00,36.20
2022,07,26,15,01,36.20
2022,07,26,15,02,36.20
2022,07,26,15,03,36.20
2022,07,26,15,04,36.20
2022,07,26,15,05,36.20
2022,07,26,15,06,36.30
2022,07,26,15,07,36.30
2022,07,26,15,08,36.30
2022,07,26,15,09,36.30
2022,07,26,15,10,36.30
2022,07,26,15,11,36.30
2022,07,26,15,12,36.30
2022,07,26,15,13,36.30
2022,07,26,15,14,36.30
2022,07,26,15,15,36.30
2022,07,26,15,16,36.40
2022,07,26,15,17,36.40
2022,07,26,15,18,36.60
2022,07,26,15,19,36.70
2022,07,26,15,20,36.70
2022,07,26,15,21,36.80
2022,07,26,15,22,36.80
2022,07,26,15,23,36.90
2022,07,26,15,24,36.90
2022,07,26,15,25,36.90
2022,07,26,15,26,36.90
2022,07,26,15,27,36.90
2022,07,26,15,28,36.90
2022,07,26,15,29,36.90
2022,07,26,15,30,36.90
2022,07,26,15,31,36.90
2022,07,26,15,32,37.00
2022,07,26,15,33,37.10
2022,07,26,15,34,37.00
2022,07,26,15,35,37.00
2022,07,26,15,36,36.90
2022,07,26,15,37,36.80
2022,07,26,15,38,36.70
2022,07,26,15,39,36.70
2022,07,26,15,40,36.70
2022,07,26,15,41,36.70
2022,07,26,15,42,36.70
2022,07,26,15,43,36.70
2022,07,26,15,44,36.60
2022,07,26,15,45,36.60
2022,07,26,15,46,36.70
2022,07,26,15,47,36.80
2022,07,26,15,48,37.00
2022,07,26,15,49,37.00
2022,07,26,15,50,37.10
2022,07,26,15,51,37.10
2022,07,26,15,52,37.10
2022,07,26,15,53,37.10
2022,07,26,15,54,37.10
2022,07,26,15,55,37.10
2022,07,26,15,56,37.10
2022,07,26,15,57,37.10
2022,07,26,15,58,37.00
2022,07,26,15,59,37.00
2022,07,26,16,00,37.00
2022,07,26,16,01,37.10
2022,07,26,16,02,37.10
2022,07,26,16,03,37.20
2022,07,26,16,04,37.30
2022,07,26,16,05,37.40
2022,07,26,16,06,37.40
2022,07,26,16,07,37.50
2022,07,26,16,08,37.50
2022,07,26,16,09,37.50
2022,07,26,16,10,37.40
2022,07,26,16,11,37.40
2022,07,26,16,12,37.40
2022,07,26,16,13,37.30
2022,07,26,16,14,37.30
2022,07,26,16,15,37.30
2022,07,26,16,16,37.30
2022,07,26,16,17,37.30
2022,07,26,16,18,37.20
2022,07,26,16,19,37.20
2022,07,26,16,20,37.30
2022,07,26,16,21,37.30
2022,07,26,16,22,37.30
2022,07,26,16,23,37.30
2022,07,26,16,24,37.40
2022,07,26,16,25,37.40
2022,07,26,16,26,37.40
2022,07,26,16,27,37.40
2022,07,26,16,28,37.40
2022,07,26,16,29,37.40
2022,07,26,16,30,37.40
2022,07,26,16,31,37.40
2022,07,26,16,32,37.30
2022,07,26,16,33,37.30
2022,07,26,16,34,37.40
2022,07,26,16,35,37.40
2022,07,26,16,36,37.30
2022,07,26,16,37,37.30
2022,07,26,16,38,37.30
2022,07,26,16,39,37.40
2022,07,26,16,40,37.40
2022,07,26,16,41,37.50
2022,07,26,16,42,37.50
2022,07,26,16,43,37.50
2022,07,26,16,44,37.50
2022,07,26,16,45,37.50
2022,07,26,16,46,37.50
2022,07,26,16,47,37.30
2022,07,26,16,48,37.20
2022,07,26,16,49,37.00
2022,07,26,16,50,36.80
2022,07,26,16,51,36.80
2022,07,26,16,52,36.80
2022,07,26,16,53,36.90
2022,07,26,16,54,37.00
2022,07,26,16,55,37.00
2022,07,26,16,56,37.10
2022,07,26,16,57,37.10
2022,07,26,16,58,37.10
2022,07,26,16,59,37.20
2022,07,26,17,00,37.10
2022,07,26,17,01,37.00
2022,07,26,17,02,36.90
2022,07,26,17,03,36.80
2022,07,26,17,04,36.70
2022,07,26,17,05,36.70
2022,07,26,17,06,36.50
2022,07,26,17,07,36.40
2022,07,26,17,08,36.30
2022,07,26,17,09,36.30
2022,07,26,17,10,36.40
2022,07,26,17,11,36.40
2022,07,26,17,12,36.40
2022,07,26,17,13,36.40
2022,07,26,17,14,36.40
2022,07,26,17,15,36.40
2022,07,26,17,16,36.30
2022,07,26,17,17,36.30
2022,07,26,17,18,36.30
2022,07,26,17,19,36.20